Back to catalog

SNIPE 2

AliveScienceSSO
NORAD 56745·PAYLOAD·🇰🇷 South Korea
This satellite name has not been confirmed by official sources yet.

Launched May 25, 2023 from Naro Space Center

Loading…

Next Passes (next 24 hours)

TLE

FreshSource: Space-Track

Epoch: Sep 14, 2026, 14:17 UTC

1 56745U 23072C   26257.59567433  .00025529  00000-0  43618-3 0  9993
2 56745  97.5117 110.3548 0005408  50.6584 309.5146 15.51272694184087

Track SNIPE 2 in real time with AllMySat

Download on the App Store